User: anonymous   Login
Location: Bismarck
(46.7731°N, 100.8200°W)
Time: 11:59:24
(UTC-05:00)
Language:

Cosmos 1125 Rocket - Orbit

View from above orbital plane
View from above orbital plane
View from above satellite
View from above satellite

Ground track
Ground track

The orbit data is extracted from the following two-line orbital elements,

1 11511U 79078B   15245.11898625  .00000063  00000-0  30097-4 0  9999
2 11511  74.0352  77.3749 0014920 123.1307 237.1281 14.36648102884685
Epoch (UTC): 02 September 2015 02:51:20
Eccentricity: 0.0014920
inclination: 74.0352°
perigee height: 759 km
apogee height: 780 km
right ascension of ascending node: 77.3749°
argument of perigee: 123.1307°
revolutions per day: 14.36648102
mean anomaly at epoch: 237.1281°
orbit number at epoch: 88468

The dashed part of the orbit path shows where the satellite is in the earth's shadow,  

DLR